Location: McLaughlin
(0.0000°N, 0.0000°E)
Time: 10:21:22
(UTC+00:00)

Hubble Space Telescope - Pass Details

Date: 27 June 2019
Orbit: 536 x 540 km, 28.5° (Epoch: 16 July)

Event Time Altitude Azimuth Distance (km) Brightness Sun altitude
Exits shadow 04:00:58 25° 116° (ESE) 1,085 2.6 -27.8°
Drops below altitude 10° 04:02:48 10° 118° (ESE) 1,778 3.8 -27.4°
Sets 04:05:04 0° 119° (ESE) 2,670 4.8 -26.9°
